Flag for Thailand Weather past 2 weeks in Hat Yai, Thailand

Now
75 °F

Partly cloudy.


Feels Like: 73 °F
Forecast: 77 / 94 °F
Wind: No wind

Location: Hat Yai Airport

Current Time: May 28, 2015 at 3:39:10 AM

Latest Report: May 28, 2015 at 3:00 AM


Visibility: 4 mi

Pressure: 29.80 "Hg

Humidity: 100%

Dew point: 75 °F

Location of Hat YaiLocation

Historic Weather in Hat Yai — Graph

°F

Hat Yai temperature yesterday

Maximum temperature yesterday: 90 °F (at 10:00 AM)
Minimum temperature yesterday: 75 °F (at 3:00 PM)
Average temperature yesterday: 79 °F

Past Weeks' High & Low Weather Summary

 TemperatureHumidityPressure
High95 °F (May 16, 1:30 PM)100% (May 13, 5:00 AM)29.92 "Hg (May 13, 5:00 AM)
Low75 °F (May 17, 4:00 AM)53% (May 16, 1:30 PM)29.71 "Hg (May 13, 3:30 PM)
Average83 °F82%29.82 "Hg
* Reported May 13 2:00 AM — May 28 2:00 AM, Hat Yai, Weather by CustomWeather, © 2015

Note: Actual official high and low records may vary slightly from our data, if they occured in-between our weather recording intervals... More about our weather records

Advertising

Hat Yai weather history for previous 24 hours

 ConditionsComfort  
Time TempWeatherWind HumidityBarometerVisibility
2:00 AM
Thu, May 28
75 °FPartly cloudy.No wind100%29.83 "Hg4 mi
1:00 AM75 °FPartly cloudy.3 mph100%29.83 "Hg4 mi
12:30 AM75 °FPartly cloudy.2 mph100%29.83 "Hg4 mi
12:00 AM75 °FPartly cloudy.2 mph100%29.83 "Hg4 mi
11:30 PM
Wed, May 27
75 °FPartly cloudy.2 mph100%29.86 "Hg4 mi
11:00 PM75 °FPartly cloudy.No wind100%29.86 "Hg4 mi
10:30 PM75 °FFog.3 mph100%29.86 "Hg3 mi
10:00 PM75 °FFog.2 mph100%29.83 "Hg3 mi
9:30 PM75 °FFog.2 mph100%29.83 "Hg3 mi
9:00 PM75 °FPartly cloudy.No wind100%29.83 "Hg4 mi
8:30 PM75 °FPartly cloudy.2 mph100%29.83 "Hg6 mi
8:00 PM75 °FPartly cloudy.3 mph100%29.83 "Hg6 mi
7:30 PM75 °FPartly cloudy.3 mph100%29.83 "Hg5 mi
7:00 PM75 °FLight rain. Partly cloudy.2 mph100%29.80 "Hg5 mi
6:30 PM75 °FLight rain. Partly cloudy.3 mph100%29.80 "Hg5 mi
6:00 PM75 °FThunderstorms. Broken clouds.3 mph100%29.77 "HgN/A
5:30 PM75 °FThunderstorms. Broken clouds.2 mph94%29.77 "HgN/A
5:00 PM75 °FThunderstorms. Broken clouds.3 mph94%29.77 "HgN/A
4:30 PM75 °FThunderstorms. Broken clouds.3 mph94%29.80 "HgN/A
4:00 PM75 °FThunderstorms. Broken clouds.8 mph94%29.80 "HgN/A
3:30 PM75 °FThunderstorms. Broken clouds.3 mph94%29.80 "HgN/A
3:00 PM75 °FThunderstorms. Broken clouds.8 mph94%29.83 "HgN/A
2:30 PM77 °FThunderstorms. Broken clouds.7 mph94%29.83 "Hg6 mi
2:00 PM79 °FThunderstorms. Broken clouds.8 mph89%29.80 "Hg6 mi
1:30 PM79 °FThunderstorms. Broken clouds.7 mph89%29.80 "HgN/A
1:00 PM84 °FThunderstorms. Broken clouds.3 mph74%29.80 "HgN/A
12:30 PM90 °FScattered showers. Partly sunny.6 mph67%29.83 "HgN/A
12:00 PM88 °FScattered showers. Partly sunny.2 mph75%29.83 "HgN/A
11:30 AM90 °FBroken clouds.3 mph71%29.86 "HgN/A
11:00 AM90 °FBroken clouds.5 mph71%29.86 "HgN/A
10:30 AM90 °FBroken clouds.2 mph67%29.86 "HgN/A
10:00 AM90 °FBroken clouds.5 mph71%29.86 "HgN/A
9:30 AM86 °FBroken clouds.3 mph75%29.86 "HgN/A
9:00 AM84 °FBroken clouds.2 mph79%29.86 "HgN/A
8:30 AM84 °FPartly sunny.3 mph79%29.86 "HgN/A
8:00 AM82 °FPartly sunny.2 mph84%29.86 "HgN/A
7:30 AM79 °FPartly sunny.2 mph89%29.83 "HgN/A
7:00 AM79 °FBroken clouds.No wind89%29.83 "HgN/A
6:30 AM77 °FBroken clouds.2 mph94%29.80 "HgN/A
6:00 AM77 °FBroken clouds.2 mph94%29.80 "HgN/A
5:30 AM77 °FPassing clouds.3 mph94%29.80 "HgN/A
5:00 AM77 °FMostly cloudy.2 mph94%29.80 "HgN/A
4:30 AM77 °FMostly cloudy.3 mph94%29.80 "HgN/A
4:00 AM77 °FMostly cloudy.2 mph94%29.80 "HgN/A
3:30 AM77 °FMostly cloudy.3 mph94%29.80 "HgN/A
3:00 AM79 °FMostly cloudy.3 mph89%29.83 "HgN/A
Weather by CustomWeather, © 2015

See weather overviewHow to use our weather pages